This demonstration page uses our WeatherBlox Daily Observations layout. Learn more.

Left ArrowRight Arrow

Hourly Observations for July 31, 2018

Temp ( °F °C ) Dew Point ( °F °C ) Humidity (%) Winds ( mph kmh ) Pressure ( in mb ) Visibility ( mi km ) Precip ( " mm )
12:15 am 00:15 Cloudy 68 20 68 20 100 100 N N/A 30.09 1019 10 16 N/A
12:35 am 00:35 Cloudy with Light Rain 68 20 68 20 100 100 N N/A 30.12 1020 5 8 N/A
12:55 am 00:55 Cloudy 68 20 68 20 100 100 ENE 3 6 30.09 1019 10 16 N/A
1:15 am 01:15 Cloudy 68 20 68 20 100 100 N N/A 30.09 1019 7 11 N/A
1:35 am 01:35 Cloudy with Drizzle 66 19 66 19 100 100 N N/A 30.09 1019 3 5 N/A
1:55 am 01:55 Cloudy with Rain 66 19 66 19 100 100 N N/A 30.09 1019 3 5 N/A
2:15 am 02:15 Cloudy with Mist and Fog 66 19 66 19 100 100 N N/A 30.09 1019 3 5 N/A
2:35 am 02:35 Cloudy with Mist and Fog 66 19 66 19 100 100 ENE 3 6 30.09 1019 5 8 N/A
2:55 am 02:55 Cloudy with Mist and Fog 66 19 66 19 100 100 N N/A 30.09 1019 3 5 N/A
3:15 am 03:15 Cloudy with Rain 66 19 66 19 100 100 N N/A 30.09 1019 3 5 N/A
3:35 am 03:35 Cloudy with Drizzle 66 19 66 19 100 100 N N/A 30.09 1019 3 4 N/A
3:55 am 03:55 Cloudy with Drizzle 66 19 66 19 100 100 E 7 11 30.09 1019 3 4 N/A
4:15 am 04:15 Cloudy with Drizzle 64 18 64 18 100 100 ESE 3 6 30.09 1019 4 6 N/A
4:35 am 04:35 Cloudy 64 18 64 18 100 100 N N/A 30.09 1019 10 16 N/A
4:55 am 04:55 Cloudy 64 18 64 18 100 100 ESE 3 6 30.09 1019 7 11 N/A
5:15 am 05:15 Cloudy 64 18 64 18 100 100 N N/A 30.09 1019 10 16 N/A
5:35 am 05:35 Cloudy 64 18 64 18 100 100 E 3 6 30.09 1019 7 11 N/A
5:55 am 05:55 Cloudy 64 18 64 18 100 100 N N/A 30.12 1020 10 16 N/A
6:15 am 06:15 Cloudy 64 18 64 18 100 100 N N/A 30.12 1020 10 16 N/A
6:35 am 06:35 Cloudy 64 18 64 18 100 100 N N/A 30.12 1020 7 11 N/A
6:55 am 06:55 Cloudy 64 18 64 18 100 100 N N/A 30.12 1020 7 11 N/A
7:15 am 07:15 Cloudy 64 18 64 18 100 100 ESE 3 6 30.12 1020 7 11 N/A
7:35 am 07:35 Cloudy 66 19 66 19 100 100 N N/A 30.12 1020 7 11 N/A
7:55 am 07:55 Cloudy 66 19 66 19 100 100 E 5 7 30.12 1020 10 16 N/A
8:15 am 08:15 Cloudy 66 19 66 19 100 100 ESE 6 9 30.12 1020 10 16 N/A
8:35 am 08:35 Cloudy 66 19 66 19 100 100 ESE 5 7 30.12 1020 10 16 N/A
8:55 am 08:55 Cloudy 68 20 68 20 100 100 ESE 5 7 30.12 1020 10 16 N/A
9:15 am 09:15 Cloudy 68 20 68 20 100 100 SE 3 6 30.12 1020 10 16 N/A
9:35 am 09:35 Cloudy 68 20 68 20 100 100 N N/A 30.12 1020 10 16 N/A
9:55 am 09:55 Cloudy 68 20 68 20 100 100 E 5 7 30.12 1020 10 16 N/A
10:15 am 10:15 Cloudy 70 21 70 21 100 100 SE 5 7 30.12 1020 10 16 N/A
10:35 am 10:35 Cloudy 70 21 68 20 94 94 E 5 7 30.12 1020 10 16 N/A
10:55 am 10:55 Cloudy 72 22 70 21 94 94 E 5 7 30.12 1020 10 16 N/A
11:15 am 11:15 Cloudy 72 22 70 21 94 94 SE 5 7 30.12 1020 10 16 N/A
11:35 am 11:35 Cloudy 72 22 70 21 94 94 ESE 6 9 30.12 1020 10 16 N/A
11:55 am 11:55 Cloudy 72 22 70 21 94 94 ESE 5 7 30.12 1020 10 16 N/A
12:15 pm 12:15 Cloudy 72 22 70 21 94 94 SE 3 6 30.12 1020 10 16 N/A
12:35 pm 12:35 Cloudy 73 23 70 21 89 89 ESE 3 6 30.12 1020 10 16 N/A
12:55 pm 12:55 Cloudy 73 23 70 21 89 89 SSE 5 7 30.12 1020 10 16 N/A
1:15 pm 13:15 Cloudy 73 23 70 21 89 89 S 5 7 30.12 1020 10 16 N/A
1:35 pm 13:35 Cloudy 75 24 70 21 83 83 S 6 9 30.12 1020 10 16 N/A
1:55 pm 13:55 Cloudy 75 24 72 22 89 89 N N/A 30.12 1020 10 16 N/A
2:15 pm 14:15 Cloudy 77 25 72 22 83 83 ESE 3 6 30.09 1019 10 16 N/A
2:35 pm 14:35 Cloudy 77 25 72 22 83 83 E 6 9 30.09 1019 10 16 N/A
2:55 pm 14:55 Cloudy 77 25 72 22 83 83 ESE 7 11 30.09 1019 10 16 N/A
3:15 pm 15:15 Cloudy 77 25 72 22 83 83 E 10 17 30.06 1018 10 16 N/A
3:35 pm 15:35 Cloudy 77 25 72 22 83 83 SE 6 9 30.06 1018 10 16 N/A
3:55 pm 15:55 Cloudy 79 26 72 22 79 79 SSE 6 9 30.06 1018 10 16 N/A
4:15 pm 16:15 Cloudy 79 26 72 22 79 79 SSE 7 11 30.06 1018 10 16 N/A
4:35 pm 16:35 Cloudy 79 26 72 22 79 79 SE 6 9 30.06 1018 10 16 N/A
4:55 pm 16:55 Cloudy 81 27 72 22 74 74 SSE 7 11 30.06 1018 10 16 N/A
5:15 pm 17:15 Cloudy 81 27 73 23 79 79 SE 8 13 30.06 1018 10 16 N/A
5:35 pm 17:35 Cloudy 81 27 73 23 79 79 SSE 8 13 30.06 1018 10 16 N/A
5:55 pm 17:55 Cloudy 81 27 73 23 79 79 SE 6 9 30.06 1018 10 16 N/A
6:15 pm 18:15 Cloudy 79 26 73 23 84 84 SE 3 6 30.06 1018 10 16 N/A
6:35 pm 18:35 Cloudy 81 27 73 23 79 79 SSE 5 7 30.06 1018 10 16 N/A
6:55 pm 18:55 Cloudy 81 27 72 22 74 74 SSE 3 6 30.06 1018 10 16 N/A
7:15 pm 19:15 Mostly Cloudy 81 27 73 23 79 79 SE 6 9 30.06 1018 10 16 N/A
7:35 pm 19:35 Mostly Cloudy 81 27 73 23 79 79 SE 3 6 30.06 1018 10 16 N/A
8:15 pm 20:15 Mostly Cloudy 79 26 73 23 84 84 N N/A 30.06 1018 10 16 N/A
8:35 pm 20:35 Cloudy 79 26 73 23 84 84 SSE 5 7 30.06 1018 10 16 N/A
8:55 pm 20:55 Cloudy 79 26 73 23 84 84 SSE 3 6 30.06 1018 10 16 N/A
9:15 pm 21:15 Cloudy 79 26 73 23 84 84 SSE 5 7 30.06 1018 10 16 N/A
9:35 pm 21:35 Cloudy with Light Rain 79 26 73 23 84 84 SSE 7 11 30.06 1018 10 16 N/A
9:55 pm 21:55 Cloudy with Light Rain 77 25 73 23 89 89 SE 6 9 30.06 1018 10 16 N/A
10:15 pm 22:15 Partly Cloudy with Light Rain 75 24 73 23 94 94 SSE 7 11 30.06 1018 10 16 N/A
10:35 pm 22:35 Clear with Light Rain 73 23 73 23 100 100 SSE 8 13 30.06 1018 10 16 N/A
10:55 pm 22:55 Clear with Rain 73 23 73 23 100 100 SSE 9 15 30.06 1018 10 16 N/A
11:15 pm 23:15 Partly Cloudy with Rain 73 23 72 22 94 94 S 8 13 30.06 1018 10 16 N/A
11:35 pm 23:35 Partly Cloudy with Light Rain 72 22 72 22 100 100 S 8 13 30.06 1018 10 16 N/A
11:55 pm 23:55 Partly Cloudy with Rain 72 22 72 22 100 100 S 7 11 30.06 1018 10 16 N/A

Powered by AerisWeather